Lid_Strength_Index
14 14 14 14 14 14 14 14 14 15 15 15 15 16 15 17 17 17 18 18 19 19 19 20 20 20 20 20 19 20 19 19
13 13 14 15 14 14 14 14 15 15 15 15 16 16 16 17 18 18 18 18 19 19 19 20 20 20 20 20 20 20 20 20
11 13 14 14 14 14 13 14 14 14 15 15 16 16 17 17 18 18 19 19 19 19 19 20 20 20 20 21 20 21 21 21
11 12 11 12 13 13 13 14 14 15 15 16 16 17 16 17 18 18 18 19 19 19 19 20 20 20 20 20 21 21 21 21
10 10 11 11 12 13 13 13 14 15 16 16 16 16 16 17 18 18 18 19 19 19 19 20 20 20 20 21 21 21 21 21
10 10 10 12 12 12 12 13 14 15 16 16 16 16 16 18 18 18 19 19 19 20 20 20 21 20 20 20 22 22 21 20
10 11 11 11 11 12 12 13 14 15 15 15 16 17 17 18 18 19 19 20 20 20 21 21 20 17 17 19 21 20 21 21
11 10 11 10 11 12 13 14 15 15 15 16 17 18 19 19 19 19 20 20 21 21 21 21 20 16 15 16 19 19 20 19
10 10 10 9 11 12 15 15 15 15 16 17 18 18 19 19 19 19 20 21 21 21 21 21 20 14 14 15 18 18 18 18
9 9 10 11 12 14 17 17 17 16 16 17 18 18 20 20 19 20 20 21 21 21 21 21 21 14 14 14 18 19 19 19
10 10 10 11 14 16 18 18 17 17 16 18 18 18 19 19 20 20 20 20 21 22 21 21 22 14 13 15 19 20 20 19
11 11 10 12 15 14 17 18 18 18 19 20 19 19 19 20 20 20 21 21 21 22 22 22 22 18 15 14 19 20 21 20
12 12 11 11 14 14 15 17 20 20 21 21 20 20 20 21 21 22 21 22 23 24 24 22 21 21 16 15 16 17 21 21
12 12 11 10 14 15 14 19 21 19 20 20 21 21 21 21 22 23 22 22 24 23 23 23 22 21 17 15 15 16 19 19
15 15 14 12 12 13 13 18 19 19 20 21 21 22 22 22 22 22 22 22 23 23 23 23 23 22 19 18 17 16 17 18
18 18 18 17 14 12 12 17 19 20 20 21 21 22 22 21 22 21 21 20 22 21 21 22 22 21 18 19 21 21 20 27
19 20 19 18 18 17 13 17 18 20 21 22 22 22 22 22 23 18 18 18 17 17 19 19 18 17 17 16 16 16 17 29
21 21 22 22 22 21 19 16 17 18 19 21 22 23 23 23 24 24 20 17 16 16 17 17 16 15 15 14 15 15 21 30
22 23 24 25 25 22 20 18 17 18 18 20 21 22 22 23 23 22 22 21 20 16 17 16 15 15 15 15 16 23 26 32
24 25 24 25 25 22 20 18 17 18 19 21 21 21 21 22 22 21 21 21 20 20 18 16 15 15 15 16 24 26 29 31